| time (UTC) | temp C | wind direction | speed KPH | gust KPH | rain 1hr cm | rain 24hr cm | rain mn cm | humidity % | barometer mb |
| 20260510010747 | 20 | 5 | 14.5 | 22.5 | 0.00 | 0.00 | 0.00 | 37 | 1012.8 |
| 20260510010232 | 20 | 355 | 16.1 | 22.5 | 0.00 | 0.00 | 0.00 | 37 | 1012.8 |
| 20260510010040 | 20 | 5 | 14.5 | 22.5 | 0.00 | 0.00 | 0.00 | 37 | 1011.7 |
| 20260510005744 | 20 | 17 | 16.1 | 25.7 | 0.00 | 0.00 | 0.00 | 37 | 1012.8 |
| 20260510005227 | 20 | 13 | 19.3 | 25.7 | 0.00 | 0.00 | 0.00 | 37 | 1012.8 |
| 20260510004739 | 20 | 30 | 16.1 | 27.4 | 0.00 | 0.00 | 0.00 | 37 | 1012.6 |
| 20260510004544 | 20 | 360 | 17.7 | 27.4 | 0.00 | 0.00 | 0.00 | 37 | 1011.4 |
| 20260510004247 | 20 | 9 | 19.3 | 27.4 | 0.00 | 0.00 | 0.00 | 38 | 1012.4 |
| 20260510003730 | 20 | 40 | 17.7 | 24.1 | 0.00 | 0.00 | 0.00 | 38 | 1012.4 |
| 20260510003240 | 20 | 26 | 16.1 | 25.7 | 0.00 | 0.00 | 0.00 | 39 | 1012.3 |
| 20260510003049 | 20 | 29 | 16.1 | 25.7 | 0.00 | 0.00 | 0.00 | 39 | 1011.1 |
| 20260510002724 | 21 | 5 | 19.3 | 29.0 | 0.00 | 0.00 | 0.00 | 40 | 1012.2 |
| 20260510002235 | 21 | 12 | 17.7 | 29.0 | 0.00 | 0.00 | 0.00 | 41 | 1012.1 |
| 20260510001747 | 21 | 360 | 19.3 | 27.4 | 0.00 | 0.00 | 0.00 | 42 | 1012.2 |
| 20260510001530 | 20 | 343 | 14.5 | 20.9 | 0.00 | 0.00 | 0.00 | 43 | 1011.1 |
| 20260510001239 | 21 | 344 | 16.1 | 20.9 | 0.00 | 0.00 | 0.00 | 42 | 1012.2 |
| 20260510000722 | 21 | 355 | 14.5 | 24.1 | 0.00 | 0.00 | 0.00 | 43 | 1012.2 |
| 20260510000229 | 21 | 355 | 17.7 | 27.4 | 0.00 | 0.00 | 0.00 | 43 | 1012.2 |
| 20260510000041 | 20 | 343 | 14.5 | 27.4 | 0.00 | 0.00 | 0.00 | 43 | 1011.1 |
| 20260509235741 | 21 | 13 | 20.9 | 27.4 | 0.00 | 0.00 | 0.00 | 42 | 1012.3 |
| 20260509235223 | 21 | 355 | 19.3 | 27.4 | 0.00 | 0.00 | 0.00 | 42 | 1012.3 |
| 20260509234737 | 21 | 340 | 19.3 | 30.6 | 0.00 | 0.00 | 0.00 | 42 | 1012.3 |
| 20260509234546 | 20 | 5 | 16.1 | 32.2 | 0.00 | 0.00 | 0.00 | 42 | 1011.2 |
| 20260509234249 | 21 | 11 | 19.3 | 32.2 | 0.00 | 0.00 | 0.00 | 42 | 1012.3 |
| 20260509233732 | 21 | 27 | 24.1 | 32.2 | 0.00 | 0.00 | 0.00 | 42 | 1012.2 |
| 20260509233242 | 21 | 355 | 22.5 | 32.2 | 0.00 | 0.00 | 0.00 | 42 | 1012.1 |
| 20260509233048 | 21 | 355 | 22.5 | 32.2 | 0.00 | 0.00 | 0.00 | 43 | 1011.0 |
| 20260509232725 | 21 | 340 | 20.9 | 33.8 | 0.00 | 0.00 | 0.00 | 43 | 1012.2 |
| 20260509232234 | 21 | 355 | 19.3 | 38.6 | 0.00 | 0.00 | 0.00 | 43 | 1012.2 |
| 20260509231804 | 21 | 350 | 27.4 | 38.6 | 0.00 | 0.00 | 0.00 | 42 | 1012.0 |
| 20260509231532 | 21 | 17 | 27.4 | 38.6 | 0.00 | 0.00 | 0.00 | 42 | 1010.8 |
| 20260509231230 | 21 | 325 | 24.1 | 38.6 | 0.00 | 0.00 | 0.00 | 42 | 1012.0 |
| 20260509230737 | 21 | 5 | 30.6 | 38.6 | 0.00 | 0.00 | 0.00 | 42 | 1011.8 |
| 20260509230308 | 21 | 355 | 24.1 | 37.0 | 0.00 | 0.00 | 0.00 | 42 | 1011.9 |
| 20260509230012 | 21 | 13 | 27.4 | 37.0 | 0.00 | 0.00 | 0.00 | 42 | 1010.7 |
| 20260509225729 | 21 | 360 | 27.4 | 41.8 | 0.00 | 0.00 | 0.00 | 43 | 1011.8 |
| 20260509225257 | 21 | 355 | 29.0 | 45.1 | 0.00 | 0.00 | 0.00 | 43 | 1011.8 |
| 20260509224722 | 21 | 346 | 32.2 | 45.1 | 0.00 | 0.00 | 0.00 | 42 | 1011.8 |
| 20260509224547 | 21 | 349 | 29.0 | 41.8 | 0.00 | 0.00 | 0.00 | 43 | 1010.5 |
| 20260509224234 | 22 | 355 | 27.4 | 41.8 | 0.00 | 0.00 | 0.00 | 42 | 1011.7 |
| 20260509223746 | 22 | 360 | 27.4 | 38.6 | 0.00 | 0.00 | 0.00 | 42 | 1011.6 |
| 20260509223231 | 22 | 15 | 19.3 | 35.4 | 0.00 | 0.00 | 0.00 | 42 | 1011.6 |
| 20260509223052 | 22 | 348 | 20.9 | 35.4 | 0.00 | 0.00 | 0.00 | 41 | 1010.5 |
| 20260509222803 | 22 | 360 | 25.7 | 35.4 | 0.00 | 0.00 | 0.00 | 41 | 1011.6 |
| 20260509222224 | 22 | 355 | 24.1 | 33.8 | 0.00 | 0.00 | 0.00 | 41 | 1011.6 |
| 20260509221753 | 23 | 339 | 24.1 | 38.6 | 0.00 | 0.00 | 0.00 | 40 | 1011.6 |
| 20260509221510 | 22 | 24 | 24.1 | 38.6 | 0.00 | 0.00 | 0.00 | 40 | 1010.4 |
| 20260509221245 | 22 | 9 | 24.1 | 38.6 | 0.00 | 0.00 | 0.00 | 42 | 1011.6 |
| 20260509220734 | 22 | 355 | 27.4 | 37.0 | 0.00 | 0.00 | 0.00 | 41 | 1011.5 |
| 20260509220245 | 22 | 360 | 22.5 | 38.6 | 0.00 | 0.00 | 0.00 | 41 | 1011.4 |
| 20260509220029 | 21 | 343 | 22.5 | 38.6 | 0.00 | 0.00 | 0.00 | 42 | 1010.3 |
| 20260509215728 | 22 | 355 | 27.4 | 38.6 | 0.00 | 0.00 | 0.00 | 41 | 1011.4 |
| 20260509215242 | 22 | 34 | 29.0 | 38.6 | 0.00 | 0.00 | 0.00 | 40 | 1011.4 |
| 20260509214721 | 21 | 18 | 29.0 | 37.0 | 0.00 | 0.00 | 0.00 | 40 | 1011.2 |
| 20260509214535 | 21 | 328 | 24.1 | 37.0 | 0.00 | 0.00 | 0.00 | 40 | 1010.2 |
| 20260509214251 | 21 | 355 | 25.7 | 37.0 | 0.00 | 0.00 | 0.00 | 39 | 1011.3 |
| 20260509213733 | 22 | 360 | 22.5 | 33.8 | 0.00 | 0.00 | 0.00 | 39 | 1011.2 |
| 20260509213245 | 22 | 333 | 22.5 | 38.6 | 0.00 | 0.00 | 0.00 | 39 | 1011.2 |
| 20260509213034 | 21 | 355 | 22.5 | 38.6 | 0.00 | 0.00 | 0.00 | 38 | 1010.0 |
| 20260509212728 | 22 | 360 | 27.4 | 37.0 | 0.00 | 0.00 | 0.00 | 37 | 1011.1 |
| 20260509212239 | 22 | 19 | 27.4 | 37.0 | 0.00 | 0.00 | 0.00 | 37 | 1011.0 |
| 20260509211723 | 22 | 15 | 29.0 | 45.1 | 0.00 | 0.00 | 0.00 | 37 | 1010.9 |
| 20260509211546 | 22 | 344 | 27.4 | 45.1 | 0.00 | 0.00 | 0.00 | 37 | 1009.7 |
| 20260509211237 | 22 | 355 | 33.8 | 45.1 | 0.00 | 0.00 | 0.00 | 37 | 1010.8 |
| 20260509210802 | 22 | 9 | 27.4 | 38.6 | 0.00 | 0.00 | 0.00 | 37 | 1010.8 |
| 20260509210223 | 22 | 346 | 25.7 | 49.9 | 0.00 | 0.00 | 0.00 | 38 | 1010.8 |
| 20260509210029 | 22 | 345 | 27.4 | 49.9 | 0.00 | 0.00 | 0.00 | 38 | 1009.5 |
| 20260509205736 | 22 | 355 | 32.2 | 49.9 | 0.00 | 0.00 | 0.00 | 37 | 1010.6 |
| 20260509205247 | 23 | 355 | 35.4 | 48.3 | 0.00 | 0.00 | 0.00 | 36 | 1010.4 |
| 20260509204730 | 23 | 360 | 30.6 | 38.6 | 0.00 | 0.00 | 0.00 | 34 | 1010.3 |
| 20260509204532 | 23 | 348 | 30.6 | 38.6 | 0.00 | 0.00 | 0.00 | 34 | 1009.1 |
| 20260509204244 | 24 | 347 | 30.6 | 40.2 | 0.00 | 0.00 | 0.00 | 32 | 1010.2 |
| 20260509203727 | 24 | 5 | 27.4 | 40.2 | 0.00 | 0.00 | 0.00 | 31 | 1010.2 |
| 20260509203240 | 25 | 13 | 22.5 | 35.4 | 0.00 | 0.00 | 0.00 | 30 | 1010.0 |
| 20260509203032 | 25 | 39 | 24.1 | 35.4 | 0.00 | 0.00 | 0.00 | 29 | 1009.0 |
| 20260509202747 | 25 | 342 | 24.1 | 35.4 | 0.00 | 0.00 | 0.00 | 28 | 1010.1 |
| 20260509202231 | 26 | 360 | 20.9 | 32.2 | 0.00 | 0.00 | 0.00 | 29 | 1009.9 |
| 20260509201740 | 26 | 355 | 25.7 | 35.4 | 0.00 | 0.00 | 0.00 | 27 | 1009.9 |
| 20260509201526 | 25 | 10 | 19.3 | 35.4 | 0.00 | 0.00 | 0.00 | 28 | 1008.7 |
| 20260509201224 | 26 | 15 | 27.4 | 35.4 | 0.00 | 0.00 | 0.00 | 26 | 1009.8 |
| 20260509200735 | 26 | 319 | 12.9 | 29.0 | 0.00 | 0.00 | 0.00 | 27 | 1009.7 |
| 20260509200308 | 26 | 360 | 16.1 | 29.0 | 0.00 | 0.00 | 0.00 | 24 | 1009.8 |
| 20260509200012 | 26 | 339 | 14.5 | 29.0 | 0.00 | 0.00 | 0.00 | 27 | 1008.6 |
| 20260509195730 | 26 | 325 | 6.4 | 27.4 | 0.00 | 0.00 | 0.00 | 26 | 1009.8 |
| 20260509195234 | 26 | 355 | 16.1 | 30.6 | 0.00 | 0.00 | 0.00 | 27 | 1009.8 |
| 20260509194746 | 26 | 342 | 12.9 | 30.6 | 0.00 | 0.00 | 0.00 | 25 | 1009.7 |
| 20260509194522 | 26 | 41 | 11.3 | 25.7 | 0.00 | 0.00 | 0.00 | 26 | 1008.5 |
| 20260509194231 | 26 | 334 | 19.3 | 25.7 | 0.00 | 0.00 | 0.00 | 26 | 1009.7 |
| 20260509193738 | 26 | 9 | 12.9 | 25.7 | 0.00 | 0.00 | 0.00 | 26 | 1009.7 |
| 20260509193224 | 26 | 315 | 14.5 | 25.7 | 0.00 | 0.00 | 0.00 | 27 | 1009.7 |
| 20260509193026 | 26 | 329 | 11.3 | 22.5 | 0.00 | 0.00 | 0.00 | 29 | 1008.5 |
| 20260509192734 | 26 | 313 | 14.5 | 22.5 | 0.00 | 0.00 | 0.00 | 26 | 1009.7 |
| 20260509192243 | 26 | 355 | 16.1 | 22.5 | 0.00 | 0.00 | 0.00 | 26 | 1009.7 |
| 20260509191731 | 26 | 5 | 9.7 | 22.5 | 0.00 | 0.00 | 0.00 | 25 | 1009.6 |
| 20260509191506 | 26 | 24 | 9.7 | 22.5 | 0.00 | 0.00 | 0.00 | 25 | 1008.4 |
| 20260509191240 | 26 | 5 | 12.9 | 22.5 | 0.00 | 0.00 | 0.00 | 24 | 1009.6 |
| 20260509190722 | 25 | 32 | 8.0 | 20.9 | 0.00 | 0.00 | 0.00 | 29 | 1009.6 |
| 20260509190232 | 25 | 306 | 9.7 | 20.9 | 0.00 | 0.00 | 0.00 | 28 | 1009.6 |
| 20260509190009 | 25 | 343 | 6.4 | 25.7 | 0.00 | 0.00 | 0.00 | 27 | 1008.5 |
| 20260509185744 | 25 | 314 | 11.3 | 25.7 | 0.00 | 0.00 | 0.00 | 27 | 1009.7 |
| 20260509185227 | 25 | 355 | 16.1 | 25.7 | 0.00 | 0.00 | 0.00 | 25 | 1009.7 |
| 20260509184740 | 25 | 12 | 8.0 | 27.4 | 0.00 | 0.00 | 0.00 | 27 | 1009.8 |
| 20260509184520 | 25 | 355 | 9.7 | 27.4 | 0.00 | 0.00 | 0.00 | 27 | 1008.6 |
| 20260509184224 | 25 | 323 | 16.1 | 27.4 | 0.00 | 0.00 | 0.00 | 27 | 1009.7 |
| 20260509183734 | 25 | 341 | 17.7 | 29.0 | 0.00 | 0.00 | 0.00 | 27 | 1009.8 |
| 20260509183241 | 25 | 328 | 19.3 | 32.2 | 0.00 | 0.00 | 0.00 | 27 | 1009.8 |
| 20260509183017 | 25 | 355 | 12.9 | 32.2 | 0.00 | 0.00 | 0.00 | 26 | 1008.6 |
| 20260509182725 | 25 | 360 | 22.5 | 32.2 | 0.00 | 0.00 | 0.00 | 27 | 1009.7 |
| 20260509182238 | 25 | 5 | 12.9 | 29.0 | 0.00 | 0.00 | 0.00 | 27 | 1009.7 |
| 20260509181722 | 25 | 11 | 20.9 | 29.0 | 0.00 | 0.00 | 0.00 | 29 | 1009.6 |
| 20260509181511 | 24 | 346 | 17.7 | 27.4 | 0.00 | 0.00 | 0.00 | 29 | 1008.4 |
| 20260509181254 | 24 | 336 | 20.9 | 27.4 | 0.00 | 0.00 | 0.00 | 29 | 1009.5 |
| 20260509180743 | 24 | 345 | 14.5 | 30.6 | 0.00 | 0.00 | 0.00 | 28 | 1009.5 |
| 20260509180227 | 24 | 9 | 22.5 | 30.6 | 0.00 | 0.00 | 0.00 | 28 | 1009.5 |
| 20260509180108 | 24 | 355 | 17.7 | 30.6 | 0.00 | 0.00 | 0.00 | 29 | 1008.2 |
| 20260509175735 | 25 | 360 | 12.9 | 27.4 | 0.00 | 0.00 | 0.00 | 28 | 1009.5 |
| 20260509175247 | 25 | 14 | 12.9 | 24.1 | 0.00 | 0.00 | 0.00 | 28 | 1009.4 |
| 20260509174732 | 24 | 14 | 17.7 | 27.4 | 0.00 | 0.00 | 0.00 | 29 | 1009.5 |
| 20260509174505 | 24 | 350 | 9.7 | 30.6 | 0.00 | 0.00 | 0.00 | 29 | 1008.3 |
| 20260509174246 | 25 | 355 | 16.1 | 30.6 | 0.00 | 0.00 | 0.00 | 28 | 1009.4 |
| 20260509173726 | 25 | 339 | 17.7 | 30.6 | 0.00 | 0.00 | 0.00 | 30 | 1009.4 |
| 20260509173236 | 25 | 349 | 17.7 | 30.6 | 0.00 | 0.00 | 0.00 | 28 | 1009.5 |
| 20260509173007 | 25 | 17 | 12.9 | 30.6 | 0.00 | 0.00 | 0.00 | 29 | 1008.3 |
| 20260509172806 | 25 | 340 | 16.1 | 30.6 | 0.00 | 0.00 | 0.00 | 32 | 1009.5 |
| 20260509172229 | 25 | 15 | 16.1 | 24.1 | 0.00 | 0.00 | 0.00 | 30 | 1009.6 |
| 20260509171739 | 24 | 355 | 17.7 | 24.1 | 0.00 | 0.00 | 0.00 | 29 | 1009.5 |
| 20260509171556 | 24 | 17 | 17.7 | 22.5 | 0.00 | 0.00 | 0.00 | 30 | 1008.3 |
| 20260509171251 | 25 | 313 | 11.3 | 20.9 | 0.00 | 0.00 | 0.00 | 33 | 1009.5 |
| 20260509170733 | 24 | 13 | 8.0 | 20.9 | 0.00 | 0.00 | 0.00 | 34 | 1009.6 |
| 20260509170244 | 24 | 55 | 4.8 | 22.5 | 0.00 | 0.00 | 0.00 | 36 | 1009.7 |
| 20260509170059 | 23 | 336 | 6.4 | 24.1 | 0.00 | 0.00 | 0.00 | 33 | 1008.5 |
| 20260509165727 | 23 | 61 | 11.3 | 24.1 | 0.00 | 0.00 | 0.00 | 34 | 1009.7 |
| 20260509165240 | 23 | 331 | 17.7 | 22.5 | 0.00 | 0.00 | 0.00 | 32 | 1009.7 |
| 20260509164724 | 23 | 38 | 16.1 | 25.7 | 0.00 | 0.00 | 0.00 | 32 | 1009.7 |
| 20260509164555 | 23 | 5 | 14.5 | 25.7 | 0.00 | 0.00 | 0.00 | 32 | 1008.5 |
| 20260509164237 | 23 | 40 | 17.7 | 25.7 | 0.00 | 0.00 | 0.00 | 33 | 1009.7 |
| 20260509163745 | 23 | 355 | 16.1 | 25.7 | 0.00 | 0.00 | 0.00 | 31 | 1009.6 |
| 20260509163228 | 23 | 15 | 17.7 | 25.7 | 0.00 | 0.00 | 0.00 | 32 | 1009.6 |
| 20260509163003 | 23 | 5 | 17.7 | 25.7 | 0.00 | 0.00 | 0.00 | 37 | 1008.4 |
| 20260509162740 | 23 | 355 | 14.5 | 25.7 | 0.00 | 0.00 | 0.00 | 35 | 1009.5 |
| 20260509162222 | 22 | 21 | 16.1 | 27.4 | 0.00 | 0.00 | 0.00 | 34 | 1009.5 |
| 20260509161734 | 22 | 38 | 16.1 | 27.4 | 0.00 | 0.00 | 0.00 | 34 | 1009.5 |
| 20260509161512 | 22 | 5 | 19.3 | 25.7 | 0.00 | 0.00 | 0.00 | 33 | 1008.3 |
| 20260509161247 | 23 | 20 | 17.7 | 25.7 | 0.00 | 0.00 | 0.00 | 34 | 1009.6 |
| 20260509160731 | 22 | 355 | 14.5 | 30.6 | 0.00 | 0.00 | 0.00 | 36 | 1009.5 |
| 20260509160242 | 22 | 5 | 20.9 | 35.4 | 0.00 | 0.00 | 0.00 | 36 | 1009.6 |
| 20260509160053 | 21 | 5 | 24.1 | 35.4 | 0.00 | 0.00 | 0.00 | 33 | 1008.3 |
| 20260509155749 | 22 | 344 | 24.1 | 35.4 | 0.00 | 0.00 | 0.00 | 34 | 1009.5 |
| 20260509155239 | 22 | 339 | 17.7 | 30.6 | 0.00 | 0.00 | 0.00 | 36 | 1009.6 |
| 20260509154723 | 22 | 15 | 20.9 | 29.0 | 0.00 | 0.00 | 0.00 | 35 | 1009.6 |
| 20260509154544 | 21 | 346 | 17.7 | 29.0 | 0.00 | 0.00 | 0.00 | 36 | 1008.4 |
| 20260509154237 | 22 | 5 | 20.9 | 32.2 | 0.00 | 0.00 | 0.00 | 35 | 1009.6 |
| 20260509153748 | 22 | 338 | 19.3 | 32.2 | 0.00 | 0.00 | 0.00 | 36 | 1009.7 |
| 20260509153230 | 22 | 332 | 22.5 | 37.0 | 0.00 | 0.00 | 0.00 | 36 | 1009.6 |
| 20260509153045 | 22 | 360 | 20.9 | 37.0 | 0.00 | 0.00 | 0.00 | 34 | 1008.5 |
| 20260509152743 | 23 | 11 | 27.4 | 37.0 | 0.00 | 0.00 | 0.00 | 34 | 1009.6 |
| 20260509152224 | 22 | 329 | 9.7 | 43.5 | 0.00 | 0.00 | 0.00 | 36 | 1009.5 |
| 20260509151735 | 23 | 323 | 27.4 | 43.5 | 0.00 | 0.00 | 0.00 | 34 | 1009.5 |
| 20260509151555 | 23 | 329 | 16.1 | 24.1 | 0.00 | 0.00 | 0.00 | 36 | 1008.4 |
| 20260509151246 | 22 | 336 | 12.9 | 17.7 | 0.00 | 0.00 | 0.00 | 36 | 1009.1 |
| 20260509150727 | 22 | 209 | 14.5 | 17.7 | 0.00 | 0.00 | 0.00 | 37 | 1008.7 |
| 20260509150259 | 22 | 227 | 11.3 | 20.9 | 0.00 | 0.00 | 0.00 | 38 | 1008.7 |
| 20260509150030 | 21 | 227 | 11.3 | 17.7 | 0.00 | 0.00 | 0.00 | 38 | 1007.5 |
| 20260509145746 | 22 | 228 | 11.3 | 17.7 | 0.00 | 0.00 | 0.00 | 40 | 1008.6 |
| 20260509145231 | 21 | 182 | 9.7 | 14.5 | 0.00 | 0.00 | 0.00 | 40 | 1008.8 |
| 20260509144735 | 20 | 210 | 9.7 | 16.1 | 0.00 | 0.00 | 0.00 | 39 | 1008.8 |
| 20260509144603 | 20 | 214 | 9.7 | 16.1 | 0.00 | 0.00 | 0.00 | 41 | 1007.7 |
| 20260509144500 | 20 | 209 | 9.7 | 17.7 | 0.00 | 0.00 | 0.00 | 42 | 1007.7 |
| 20260509144245 | 20 | 220 | 11.3 | 17.7 | 0.00 | 0.00 | 0.00 | 40 | 1008.8 |
| 20260509143733 | 20 | 216 | 11.3 | 17.7 | 0.00 | 0.00 | 0.00 | 39 | 1008.7 |
| 20260509143244 | 20 | 220 | 9.7 | 16.1 | 0.00 | 0.00 | 0.00 | 41 | 1008.8 |
| 20260509143028 | 20 | 200 | 9.7 | 16.1 | 0.00 | 0.00 | 0.00 | 40 | 1007.7 |
| 20260509142733 | 20 | 223 | 12.9 | 16.1 | 0.00 | 0.00 | 0.00 | 38 | 1008.9 |
| 20260509142242 | 20 | 174 | 9.7 | 19.3 | 0.00 | 0.00 | 0.00 | 40 | 1008.9 |
| 20260509141724 | 19 | 205 | 14.5 | 19.3 | 0.00 | 0.00 | 0.00 | 39 | 1009.0 |
| 20260509141541 | 19 | 207 | 12.9 | 19.3 | 0.00 | 0.00 | 0.00 | 38 | 1008.0 |
| 20260509141233 | 19 | 200 | 11.3 | 16.1 | 0.00 | 0.00 | 0.00 | 41 | 1008.9 |
| 20260509140743 | 18 | 219 | 9.7 | 16.1 | 0.00 | 0.00 | 0.00 | 41 | 1008.9 |
| 20260509140224 | 18 | 217 | 9.7 | 12.9 | 0.00 | 0.00 | 0.00 | 44 | 1008.9 |
| 20260509140035 | 18 | 233 | 8.0 | 14.5 | 0.00 | 0.00 | 0.00 | 44 | 1007.8 |
| 20260509135735 | 18 | 221 | 8.0 | 12.9 | 0.00 | 0.00 | 0.00 | 44 | 1008.9 |
| 20260509135245 | 17 | 238 | 9.7 | 14.5 | 0.00 | 0.00 | 0.00 | 44 | 1008.9 |
| 20260509134725 | 17 | 220 | 9.7 | 14.5 | 0.00 | 0.00 | 0.00 | 45 | 1008.8 |
| 20260509134533 | 17 | 208 | 6.4 | 14.5 | 0.00 | 0.00 | 0.00 | 46 | 1007.8 |
| 20260509134238 | 17 | 228 | 9.7 | 14.5 | 0.00 | 0.00 | 0.00 | 47 | 1008.8 |
| 20260509133743 | 17 | 229 | 9.7 | 16.1 | 0.00 | 0.00 | 0.00 | 47 | 1008.7 |
| 20260509133225 | 16 | 227 | 11.3 | 16.1 | 0.00 | 0.00 | 0.00 | 49 | 1008.8 |
| 20260509133038 | 16 | 217 | 8.0 | 14.5 | 0.00 | 0.00 | 0.00 | 50 | 1007.7 |
| 20260509132737 | 16 | 209 | 9.7 | 14.5 | 0.00 | 0.00 | 0.00 | 51 | 1008.8 |
| 20260509132251 | 15 | 197 | 8.0 | 11.3 | 0.00 | 0.00 | 0.00 | 55 | 1008.8 |
| 20260509131734 | 15 | 219 | 8.0 | 11.3 | 0.00 | 0.00 | 0.00 | 56 | 1008.8 |
| 20260509131549 | 14 | 215 | 8.0 | 11.3 | 0.00 | 0.00 | 0.00 | 55 | 1007.8 |
| 20260509131305 | 14 | 213 | 4.8 | 9.7 | 0.00 | 0.00 | 0.00 | 56 | 1008.8 |
| 20260509130725 | 13 | 213 | 6.4 | 11.3 | 0.00 | 0.00 | 0.00 | 57 | 1008.8 |
| 20260509130237 | 13 | 224 | 8.0 | 11.3 | 0.00 | 0.00 | 0.00 | 58 | 1008.8 |
| 20260509130036 | 12 | 217 | 6.4 | 9.7 | 0.00 | 0.00 | 0.00 | 60 | 1007.8 |
| 20260509125744 | 12 | 255 | 6.4 | 11.3 | 0.00 | 0.00 | 0.00 | 60 | 1008.8 |
| 20260509125227 | 12 | 239 | 6.4 | 8.0 | 0.00 | 0.00 | 0.00 | 61 | 1008.8 |
| 20260509124739 | 11 | 229 | 4.8 | 8.0 | 0.00 | 0.00 | 0.00 | 64 | 1008.7 |
| 20260509124540 | 11 | 219 | 4.8 | 8.0 | 0.00 | 0.00 | 0.00 | 64 | 1007.8 |
| 20260509124252 | 11 | 219 | 4.8 | 11.3 | 0.00 | 0.00 | 0.00 | 64 | 1008.8 |
| 20260509123733 | 11 | 219 | 6.4 | 11.3 | 0.00 | 0.00 | 0.00 | 64 | 1008.7 |
| 20260509123246 | 11 | 218 | 6.4 | 9.7 | 0.00 | 0.00 | 0.00 | 65 | 1008.7 |
| 20260509123050 | 10 | 221 | 4.8 | 8.0 | 0.00 | 0.00 | 0.00 | 65 | 1007.7 |
| 20260509122730 | 10 | 221 | 6.4 | 8.0 | 0.00 | 0.00 | 0.00 | 65 | 1008.7 |
| 20260509122242 | 10 | 227 | 6.4 | 9.7 | 0.00 | 0.00 | 0.00 | 65 | 1008.7 |
| 20260509121722 | 10 | 211 | 8.0 | 9.7 | 0.00 | 0.00 | 0.00 | 64 | 1008.6 |
| 20260509121546 | 10 | 216 | 6.4 | 9.7 | 0.00 | 0.00 | 0.00 | 64 | 1007.6 |
| 20260509121236 | 10 | 224 | 6.4 | 9.7 | 0.00 | 0.00 | 0.00 | 64 | 1008.6 |
| 20260509120747 | 10 | 227 | 6.4 | 11.3 | 0.00 | 0.00 | 0.00 | 64 | 1008.6 |
| 20260509120238 | 10 | 225 | 8.0 | 11.3 | 0.00 | 0.00 | 0.00 | 64 | 1008.7 |
| 20260509120037 | 9 | 230 | 6.4 | 11.3 | 0.00 | 0.00 | 0.00 | 64 | 1007.6 |
| 20260509115751 | 9 | 219 | 8.0 | 9.7 | 0.00 | 0.00 | 0.00 | 65 | 1008.6 |
| 20260509115242 | 9 | 215 | 6.4 | 9.7 | 0.00 | 0.00 | 0.00 | 64 | 1008.4 |
| 20260509114725 | 9 | 215 | 6.4 | 9.7 | 0.00 | 0.00 | 0.00 | 65 | 1008.4 |
| 20260509114517 | 8 | 207 | 4.8 | 9.7 | 0.00 | 0.00 | 0.00 | 65 | 1007.3 |
| 20260509114255 | 9 | 207 | 6.4 | 9.7 | 0.00 | 0.00 | 0.00 | 64 | 1008.3 |
| 20260509113745 | 9 | 207 | 8.0 | 9.7 | 0.00 | 0.00 | 0.00 | 64 | 1008.3 |
| 20260509113229 | 9 | 221 | 8.0 | 9.7 | 0.00 | 0.00 | 0.00 | 65 | 1008.3 |
| 20260509113005 | 8 | 214 | 6.4 | 9.7 | 0.00 | 0.00 | 0.00 | 64 | 1007.3 |
| 20260509112740 | 9 | 214 | 6.4 | 8.0 | 0.00 | 0.00 | 0.00 | 64 | 1008.3 |
| 20260509112222 | 9 | 219 | 6.4 | 8.0 | 0.00 | 0.00 | 0.00 | 64 | 1008.2 |
| 20260509111735 | 9 | 224 | 6.4 | 8.0 | 0.00 | 0.00 | 0.00 | 63 | 1008.2 |
| 20260509111512 | 8 | 221 | 4.8 | 8.0 | 0.00 | 0.00 | 0.00 | 63 | 1007.1 |
| 20260509111248 | 9 | 227 | 4.8 | 8.0 | 0.00 | 0.00 | 0.00 | 63 | 1008.1 |
| 20260509110732 | 9 | 227 | 4.8 | 8.0 | 0.00 | 0.00 | 0.00 | 63 | 1008.0 |
| 20260509110305 | 9 | 225 | 4.8 | 8.0 | 0.00 | 0.00 | 0.00 | 64 | 1008.1 |
| 20260509110031 | 8 | 236 | 4.8 | 9.7 | 0.00 | 0.00 | 0.00 | 64 | 1007.0 |
| 20260509105727 | 9 | 234 | 6.4 | 9.7 | 0.00 | 0.00 | 0.00 | 64 | 1008.2 |
| 20260509105257 | 9 | 221 | 6.4 | 9.7 | 0.00 | 0.00 | 0.00 | 65 | 1008.2 |
| 20260509104808 | 9 | 225 | 6.4 | 9.7 | 0.00 | 0.00 | 0.00 | 65 | 1008.2 |
| 20260509104556 | 8 | 220 | 6.4 | 9.7 | 0.00 | 0.00 | 0.00 | 65 | 1007.1 |
| 20260509104234 | 9 | 217 | 6.4 | 9.7 | 0.00 | 0.00 | 0.00 | 66 | 1008.2 |
| 20260509103741 | 9 | 221 | 8.0 | 9.7 | 0.00 | 0.00 | 0.00 | 66 | 1008.2 |
| 20260509103223 | 9 | 218 | 8.0 | 11.3 | 0.00 | 0.00 | 0.00 | 66 | 1008.2 |
| 20260509103056 | 9 | 217 | 6.4 | 11.3 | 0.00 | 0.00 | 0.00 | 66 | 1007.1 |
| 20260509102734 | 9 | 220 | 8.0 | 11.3 | 0.00 | 0.00 | 0.00 | 66 | 1008.1 |
| 20260509102306 | 10 | 215 | 9.7 | 12.9 | 0.00 | 0.00 | 0.00 | 65 | 1008.1 |
| 20260509101726 | 10 | 227 | 8.0 | 12.9 | 0.00 | 0.00 | 0.00 | 65 | 1008.2 |
| 20260509101508 | 9 | 227 | 8.0 | 12.9 | 0.00 | 0.00 | 0.00 | 64 | 1007.1 |
| 20260509101240 | 10 | 233 | 9.7 | 12.9 | 0.00 | 0.00 | 0.00 | 64 | 1008.2 |
| 20260509100721 | 10 | 228 | 8.0 | 12.9 | 0.00 | 0.00 | 0.00 | 64 | 1008.1 |
| 20260509100230 | 10 | 224 | 8.0 | 11.3 | 0.00 | 0.00 | 0.00 | 64 | 1008.1 |
| 20260509100012 | 10 | 221 | 6.4 | 11.3 | 0.00 | 0.00 | 0.00 | 64 | 1007.1 |
| 20260509095739 | 10 | 220 | 8.0 | 11.3 | 0.00 | 0.00 | 0.00 | 63 | 1008.2 |
| 20260509095222 | 10 | 215 | 8.0 | 11.3 | 0.00 | 0.00 | 0.00 | 62 | 1008.2 |
| 20260509094733 | 10 | 238 | 9.7 | 11.3 | 0.00 | 0.00 | 0.00 | 60 | 1008.3 |
| 20260509094511 | 10 | 227 | 6.4 | 9.7 | 0.00 | 0.00 | 0.00 | 60 | 1007.2 |
| 20260509094246 | 10 | 215 | 6.4 | 9.7 | 0.00 | 0.00 | 0.00 | 59 | 1008.3 |
| 20260509093727 | 10 | 215 | 6.4 | 9.7 | 0.00 | 0.00 | 0.00 | 59 | 1008.2 |
| 20260509093240 | 10 | 215 | 6.4 | 11.3 | 0.00 | 0.00 | 0.00 | 58 | 1008.2 |
| 20260509093015 | 10 | 208 | 6.4 | 11.3 | 0.00 | 0.00 | 0.00 | 58 | 1007.2 |
| 20260509092806 | 10 | 211 | 8.0 | 11.3 | 0.00 | 0.00 | 0.00 | 57 | 1008.3 |
| 20260509092227 | 11 | 186 | 9.7 | 11.3 | 0.00 | 0.00 | 0.00 | 56 | 1008.3 |
| 20260509091738 | 11 | 207 | 8.0 | 9.7 | 0.00 | 0.00 | 0.00 | 56 | 1008.2 |
| 20260509091603 | 10 | 211 | 6.4 | 9.7 | 0.00 | 0.00 | 0.00 | 56 | 1007.1 |
| 20260509091250 | 11 | 211 | 8.0 | 9.7 | 0.00 | 0.00 | 0.00 | 56 | 1008.2 |
| 20260509090731 | 11 | 217 | 8.0 | 9.7 | 0.00 | 0.00 | 0.00 | 56 | 1008.2 |
| 20260509090242 | 11 | 203 | 8.0 | 9.7 | 0.00 | 0.00 | 0.00 | 55 | 1008.2 |
| 20260509090042 | 11 | 193 | 6.4 | 8.0 | 0.00 | 0.00 | 0.00 | 54 | 1007.0 |
| 20260509085723 | 11 | 197 | 8.0 | 8.0 | 0.00 | 0.00 | 0.00 | 53 | 1008.1 |
| 20260509085235 | 12 | 202 | 4.8 | 6.4 | 0.00 | 0.00 | 0.00 | 52 | 1008.2 |
| 20260509084802 | 12 | 209 | 4.8 | 6.4 | 0.00 | 0.00 | 0.00 | 51 | 1008.1 |
| 20260509084516 | 12 | 238 | 3.2 | 6.4 | 0.00 | 0.00 | 0.00 | 50 | 1007.0 |
| 20260509084227 | 12 | 253 | 4.8 | 6.4 | 0.00 | 0.00 | 0.00 | 50 | 1008.0 |
| 20260509083736 | 12 | 275 | 4.8 | 6.4 | 0.00 | 0.00 | 0.00 | 50 | 1008.0 |
| 20260509083249 | 12 | 281 | 4.8 | 6.4 | 0.00 | 0.00 | 0.00 | 50 | 1007.9 |
| 20260509083031 | 12 | 288 | 3.2 | 6.4 | 0.00 | 0.00 | 0.00 | 49 | 1006.8 |
| 20260509082729 | 12 | 283 | 4.8 | 6.4 | 0.00 | 0.00 | 0.00 | 49 | 1008.0 |
| 20260509082258 | 13 | 295 | 4.8 | 8.0 | 0.00 | 0.00 | 0.00 | 49 | 1007.9 |
| 20260509081749 | 13 | 287 | 4.8 | 8.0 | 0.00 | 0.00 | 0.00 | 48 | 1007.9 |
| 20260509081601 | 12 | 294 | 4.8 | 8.0 | 0.00 | 0.00 | 0.00 | 48 | 1006.8 |
| 20260509081230 | 13 | 297 | 4.8 | 6.4 | 0.00 | 0.00 | 0.00 | 48 | 1007.9 |
| 20260509080739 | 13 | 250 | 4.8 | 6.4 | 0.00 | 0.00 | 0.00 | 48 | 1007.9 |
| 20260509080223 | 13 | 250 | 4.8 | 6.4 | 0.00 | 0.00 | 0.00 | 48 | 1007.9 |
| 20260509080005 | 13 | 211 | 3.2 | 6.4 | 0.00 | 0.00 | 0.00 | 48 | 1006.8 |
| 20260509075734 | 13 | 211 | 3.2 | 6.4 | 0.00 | 0.00 | 0.00 | 47 | 1007.9 |
| 20260509075246 | 13 | 243 | 4.8 | 8.0 | 0.00 | 0.00 | 0.00 | 46 | 1008.0 |
| 20260509074728 | 14 | 300 | 4.8 | 8.0 | 0.00 | 0.00 | 0.00 | 45 | 1007.9 |
| 20260509074602 | 13 | 303 | 4.8 | 8.0 | 0.00 | 0.00 | 0.00 | 45 | 1006.8 |
| 20260509074300 | 14 | 314 | 6.4 | 8.0 | 0.00 | 0.00 | 0.00 | 44 | 1008.0 |
| 20260509073745 | 15 | 311 | 4.8 | 8.0 | 0.00 | 0.00 | 0.00 | 44 | 1007.9 |
| 20260509073225 | 15 | 300 | 4.8 | 8.0 | 0.00 | 0.00 | 0.00 | 43 | 1008.0 |
| 20260509073048 | 15 | 305 | 3.2 | 6.4 | 0.00 | 0.00 | 0.00 | 43 | 1006.9 |
| 20260509072737 | 15 | 340 | 3.2 | 8.0 | 0.00 | 0.00 | 0.00 | 42 | 1007.9 |
| 20260509072246 | 15 | 315 | 3.2 | 8.0 | 0.00 | 0.00 | 0.00 | 42 | 1008.0 |
| 20260509071730 | 15 | 333 | 3.2 | 12.9 | 0.00 | 0.00 | 0.00 | 42 | 1008.0 |
| 20260509071526 | 15 | 337 | 3.2 | 12.9 | 0.00 | 0.00 | 0.00 | 42 | 1006.8 |
| 20260509071241 | 15 | 319 | 6.4 | 12.9 | 0.00 | 0.00 | 0.00 | 42 | 1008.0 |
| 20260509070810 | 15 | 310 | 8.0 | 16.1 | 0.00 | 0.00 | 0.00 | 42 | 1008.0 |
| 20260509070227 | 15 | 321 | 9.7 | 16.1 | 0.00 | 0.00 | 0.00 | 42 | 1008.0 |
| 20260509065739 | 15 | 325 | 9.7 | 16.1 | 0.00 | 0.00 | 0.00 | 42 | 1008.0 |
| 20260509065221 | 16 | 330 | 9.7 | 14.5 | 0.00 | 0.00 | 0.00 | 41 | 1008.1 |
| 20260509064732 | 16 | 334 | 11.3 | 16.1 | 0.00 | 0.00 | 0.00 | 41 | 1008.1 |
| 20260509064536 | 15 | 306 | 11.3 | 16.1 | 0.00 | 0.00 | 0.00 | 41 | 1007.1 |
| 20260509064245 | 16 | 318 | 11.3 | 16.1 | 0.00 | 0.00 | 0.00 | 41 | 1008.2 |
| 20260509063729 | 16 | 333 | 8.0 | 14.5 | 0.00 | 0.00 | 0.00 | 41 | 1008.2 |
| 20260509063300 | 16 | 301 | 9.7 | 16.1 | 0.00 | 0.00 | 0.00 | 40 | 1008.2 |
| 20260509063011 | 16 | 329 | 9.7 | 16.1 | 0.00 | 0.00 | 0.00 | 40 | 1007.1 |
| 20260509062748 | 16 | 328 | 9.7 | 16.1 | 0.00 | 0.00 | 0.00 | 40 | 1008.1 |
| 20260509062238 | 16 | 338 | 11.3 | 19.3 | 0.00 | 0.00 | 0.00 | 40 | 1008.1 |
| 20260509061748 | 16 | 340 | 11.3 | 19.3 | 0.00 | 0.00 | 0.00 | 40 | 1008.1 |
| 20260509061607 | 16 | 338 | 12.9 | 19.3 | 0.00 | 0.00 | 0.00 | 40 | 1007.0 |
| 20260509061231 | 16 | 349 | 14.5 | 20.9 | 0.00 | 0.00 | 0.00 | 40 | 1008.1 |
| 20260509060801 | 16 | 344 | 12.9 | 20.9 | 0.00 | 0.00 | 0.00 | 40 | 1008.2 |
| 20260509060311 | 16 | 329 | 14.5 | 22.5 | 0.00 | 0.00 | 0.00 | 40 | 1008.1 |
| 20260509060012 | 16 | 327 | 12.9 | 22.5 | 0.00 | 0.00 | 0.00 | 40 | 1007.0 |
| 20260509055728 | 16 | 347 | 14.5 | 22.5 | 0.00 | 0.00 | 0.00 | 40 | 1008.1 |
| 20260509055240 | 16 | 340 | 14.5 | 20.9 | 0.00 | 0.00 | 0.00 | 40 | 1008.1 |
| 20260509054724 | 17 | 329 | 14.5 | 20.9 | 0.00 | 0.00 | 0.00 | 40 | 1008.0 |
| 20260509054509 | 16 | 326 | 12.9 | 22.5 | 0.00 | 0.00 | 0.00 | 40 | 1007.0 |
| 20260509054420 | 17 | 323 | 14.5 | 22.5 | 0.00 | 0.00 | 0.00 | 40 | 1008.0 |
| 20260509053727 | 16 | 304 | 16.1 | 20.9 | 0.00 | 0.00 | 0.00 | 40 | 1008.0 |
| 20260509053238 | 16 | 330 | 14.5 | 20.9 | 0.00 | 0.00 | 0.00 | 40 | 1007.9 |
| 20260509053052 | 16 | 331 | 14.5 | 20.9 | 0.00 | 0.00 | 0.00 | 40 | 1006.8 |
| 20260509052721 | 16 | 336 | 12.9 | 17.7 | 0.00 | 0.00 | 0.00 | 41 | 1007.9 |
| 20260509052250 | 16 | 327 | 12.9 | 17.7 | 0.00 | 0.00 | 0.00 | 41 | 1007.9 |
| 20260509051740 | 16 | 318 | 11.3 | 17.7 | 0.00 | 0.00 | 0.00 | 40 | 1007.8 |
| 20260509051513 | 16 | 317 | 11.3 | 17.7 | 0.00 | 0.00 | 0.00 | 41 | 1006.7 |
| 20260509051224 | 16 | 311 | 12.9 | 20.9 | 0.00 | 0.00 | 0.00 | 40 | 1007.8 |
| 20260509050734 | 16 | 326 | 12.9 | 20.9 | 0.00 | 0.00 | 0.00 | 41 | 1007.7 |
| 20260509050245 | 16 | 311 | 14.5 | 19.3 | 0.00 | 0.00 | 0.00 | 41 | 1007.7 |
| 20260509050013 | 16 | 314 | 12.9 | 19.3 | 0.00 | 0.00 | 0.00 | 41 | 1006.8 |
| 20260509045729 | 17 | 310 | 11.3 | 16.1 | 0.00 | 0.00 | 0.00 | 41 | 1007.8 |
| 20260509045240 | 17 | 311 | 11.3 | 14.5 | 0.00 | 0.00 | 0.00 | 41 | 1007.7 |
| 20260509044725 | 17 | 298 | 11.3 | 14.5 | 0.00 | 0.00 | 0.00 | 41 | 1007.7 |
| 20260509044517 | 16 | 315 | 11.3 | 14.5 | 0.00 | 0.00 | 0.00 | 40 | 1006.6 |
| 20260509044234 | 17 | 321 | 9.7 | 16.1 | 0.00 | 0.00 | 0.00 | 40 | 1007.7 |
| 20260509043805 | 17 | 310 | 9.7 | 16.1 | 0.00 | 0.00 | 0.00 | 39 | 1007.6 |
| 20260509043226 | 16 | 350 | 9.7 | 17.7 | 0.00 | 0.00 | 0.00 | 40 | 1007.5 |
| 20260509043100 | 16 | 312 | 9.7 | 17.7 | 0.00 | 0.00 | 0.00 | 40 | 1006.5 |
| 20260509042739 | 16 | 325 | 9.7 | 17.7 | 0.00 | 0.00 | 0.00 | 40 | 1007.6 |
| 20260509042248 | 16 | 299 | 8.0 | 12.9 | 0.00 | 0.00 | 0.00 | 40 | 1007.6 |
| 20260509041733 | 16 | 316 | 8.0 | 14.5 | 0.00 | 0.00 | 0.00 | 41 | 1007.6 |
| 20260509041507 | 16 | 319 | 6.4 | 14.5 | 0.00 | 0.00 | 0.00 | 41 | 1006.6 |
| 20260509041244 | 16 | 298 | 8.0 | 14.5 | 0.00 | 0.00 | 0.00 | 41 | 1007.7 |
| 20260509040725 | 16 | 306 | 8.0 | 11.3 | 0.00 | 0.00 | 0.00 | 41 | 1007.5 |
| 20260509040233 | 16 | 302 | 6.4 | 11.3 | 0.00 | 0.00 | 0.00 | 42 | 1007.7 |
| 20260509040005 | 16 | 319 | 3.2 | 6.4 | 0.00 | 0.00 | 0.00 | 42 | 1006.6 |
| 20260509035804 | 16 | 319 | 4.8 | 8.0 | 0.00 | 0.00 | 0.00 | 42 | 1007.6 |
| 20260509035247 | 16 | 5 | 1.6 | 8.0 | 0.00 | 0.00 | 0.00 | 41 | 1007.6 |
| 20260509034730 | 16 | 293 | 4.8 | 9.7 | 0.00 | 0.00 | 0.00 | 41 | 1007.5 |
| 20260509034545 | 16 | 269 | 6.4 | 9.7 | 0.00 | 0.00 | 0.00 | 41 | 1006.4 |
| 20260509034242 | 16 | 259 | 6.4 | 9.7 | 0.00 | 0.00 | 0.00 | 42 | 1007.5 |
| 20260509033753 | 17 | 346 | 4.8 | 11.3 | 0.00 | 0.00 | 0.00 | 43 | 1007.6 |
| 20260509033233 | 17 | 272 | 4.8 | 11.3 | 0.00 | 0.00 | 0.00 | 42 | 1007.4 |
| 20260509033012 | 17 | 257 | 4.8 | 11.3 | 0.00 | 0.00 | 0.00 | 42 | 1006.3 |
| 20260509032739 | 17 | 242 | 6.4 | 11.3 | 0.00 | 0.00 | 0.00 | 43 | 1007.4 |
| 20260509032223 | 17 | 206 | 3.2 | 6.4 | 0.00 | 0.00 | 0.00 | 42 | 1007.4 |
| 20260509031734 | 18 | 206 | 3.2 | 6.4 | 0.00 | 0.00 | 0.00 | 42 | 1007.3 |
| 20260509031514 | 17 | 206 | 3.2 | 6.4 | 0.00 | 0.00 | 0.00 | 42 | 1006.2 |
| 20260509031242 | 18 | 206 | 4.8 | 8.0 | 0.00 | 0.00 | 0.00 | 43 | 1007.3 |
| 20260509030726 | 18 | 206 | 4.8 | 8.0 | 0.00 | 0.00 | 0.00 | 43 | 1007.2 |
| 20260509030233 | 18 | 206 | 6.4 | 9.7 | 0.00 | 0.00 | 0.00 | 42 | 1007.1 |
| 20260509030014 | 18 | 206 | 6.4 | 9.7 | 0.00 | 0.00 | 0.00 | 42 | 1006.0 |
| 20260509025744 | 18 | 206 | 6.4 | 9.7 | 0.00 | 0.00 | 0.00 | 42 | 1007.0 |
| 20260509025229 | 18 | 206 | 6.4 | 11.3 | 0.00 | 0.00 | 0.00 | 42 | 1007.0 |
| 20260509024740 | 18 | 196 | 9.7 | 11.3 | 0.00 | 0.00 | 0.00 | 41 | 1007.0 |
| 20260509024554 | 18 | 187 | 6.4 | 9.7 | 0.00 | 0.00 | 0.00 | 41 | 1006.0 |
| 20260509024253 | 19 | 203 | 6.4 | 8.0 | 0.00 | 0.00 | 0.00 | 40 | 1007.0 |
| 20260509023801 | 19 | 203 | 6.4 | 8.0 | 0.00 | 0.00 | 0.00 | 40 | 1007.0 |
| 20260509023224 | 19 | 203 | 6.4 | 8.0 | 0.00 | 0.00 | 0.00 | 40 | 1006.9 |
| 20260509023006 | 19 | 203 | 4.8 | 9.7 | 0.00 | 0.00 | 0.00 | 40 | 1005.8 |
| 20260509022736 | 20 | 203 | 4.8 | 9.7 | 0.00 | 0.00 | 0.00 | 39 | 1006.9 |
| 20260509022241 | 20 | 203 | 6.4 | 9.7 | 0.00 | 0.00 | 0.00 | 39 | 1006.8 |
| 20260509021722 | 20 | 199 | 6.4 | 8.0 | 0.00 | 0.00 | 0.00 | 38 | 1006.7 |
| 20260509021508 | 20 | 199 | 4.8 | 9.7 | 0.00 | 0.00 | 0.00 | 38 | 1005.6 |
| 20260509021235 | 20 | 194 | 4.8 | 9.7 | 0.00 | 0.00 | 0.00 | 38 | 1006.6 |
| 20260509020745 | 20 | 198 | 6.4 | 9.7 | 0.00 | 0.00 | 0.00 | 37 | 1006.7 |
| 20260509020227 | 20 | 203 | 6.4 | 8.0 | 0.00 | 0.00 | 0.00 | 36 | 1006.6 |
| 20260509020005 | 20 | 201 | 4.8 | 8.0 | 0.00 | 0.00 | 0.00 | 36 | 1005.5 |
| 20260509015737 | 20 | 194 | 6.4 | 8.0 | 0.00 | 0.00 | 0.00 | 35 | 1006.5 |
| 20260509015247 | 21 | 205 | 4.8 | 8.0 | 0.00 | 0.00 | 0.00 | 35 | 1006.4 |
| 20260509014725 | 21 | 204 | 4.8 | 8.0 | 0.00 | 0.00 | 0.00 | 35 | 1006.4 |
| 20260509014507 | 21 | 204 | 4.8 | 8.0 | 0.00 | 0.00 | 0.00 | 35 | 1005.3 |
| 20260509014233 | 21 | 201 | 4.8 | 6.4 | 0.00 | 0.00 | 0.00 | 35 | 1006.4 |
| 20260509013743 | 21 | 236 | 4.8 | 6.4 | 0.00 | 0.00 | 0.00 | 34 | 1006.4 |
| 20260509013223 | 21 | 236 | 4.8 | 8.0 | 0.00 | 0.00 | 0.00 | 33 | 1006.3 |
| 20260509013003 | 21 | 236 | 3.2 | 8.0 | 0.00 | 0.00 | 0.00 | 32 | 1005.2 |
| 20260509012754 | 22 | 237 | 4.8 | 8.0 | 0.00 | 0.00 | 0.00 | 33 | 1006.3 |
| 20260509012244 | 22 | 237 | 4.8 | 12.9 | 0.00 | 0.00 | 0.00 | 33 | 1006.3 |
| 20260509011726 | 22 | 277 | 6.4 | 12.9 | 0.00 | 0.00 | 0.00 | 32 | 1006.3 |
| 20260509011542 | 22 | 246 | 8.0 | 12.9 | 0.00 | 0.00 | 0.00 | 32 | 1005.2 |
| 20260509011238 | 22 | 282 | 4.8 | 11.3 | 0.00 | 0.00 | 0.00 | 32 | 1006.3 |